{"data":{"norad_id":66516,"intl_designator":"2025-265A","name":"STARLINK-35924","alt_names":[],"object_type":"PAYLOAD","status":"ACTIVE","operator":null,"country":"US","launch_date":"2025-11-19","launch_site_code":"AFETR","launch_vehicle":null,"mission":null,"orbit_class":"UNKNOWN","rcs_meters":null,"size_class":null,"mass_kg":null,"dimensions":null,"purposes":["comms"],"wikipedia_slug":null,"has_3d_model":false,"image_url":null,"decayed_at":null,"tle_current":{"epoch":"2026-05-25T04:09:22.782240Z","epoch_age_seconds":53917,"freshness":"FRESH","line1":"1 66516U 25265A   26145.17318035  .00016780  00000+0  61760-3 0  9994","line2":"2 66516  42.9978 205.7404 0001001 280.0226  80.0513 15.27596189 28818","mean_motion":15.27596189,"eccentricity":0.0001001,"inclination_deg":42.9978,"raan_deg":205.7404,"arg_perigee_deg":280.0226,"mean_anomaly_deg":80.0513,"bstar":0.0006176,"rev_number":2881,"period_min":94.265749703307,"perigee_km":482.31382090196,"apogee_km":483.68742065364,"semimajor_km":6861.1376207778,"source":"CELESTRAK","updated_at":"2026-05-25T13:38:21.248733Z"}}}